Change the Weather History Date:

Sunday, February 10, 2013

  Actual Average Record
Temperature  
Mean Temperature 70 °F -  
Max Temperature 74 °F 62 °F 78 °F (1999)
Min Temperature 67 °F 47 °F 30 °F (2011)
Cooling Degree Days 6    
Growing Degree Days 20 (Base 50)    
Moisture  
Dew Point 66 °F    
Average Humidity 83    
Maximum Humidity 91    
Minimum Humidity 77    
Precipitation  
Precipitation 0.00 in - - ()
Sea Level Pressure  
Sea Level Pressure 30.00 in    
Wind  
Wind Speed 12 mph (South)    
Max Wind Speed 17 mph    
Max Gust Speed 23 mph    
Visibility 8 miles    
Events      
Averages and records for this station are not official NWS values.
T = Trace of Precipitation, MM = Missing Value Source: NWS Daily Summary

Daily Weather History Graph

Daily Weather History Graph

Search for Another Location

Airport or City:

Trip Planner

Search our weather history database for the weather conditions in past years. The results will help you decide how hot, cold, wet, or windy it might be!

Date:

Astronomy

Feb. 10, 2013 Rise Set
Actual Time 6:43 AM CST 5:45 PM CST
Civil Twilight 6:19 AM CST 6:10 PM CST
Nautical Twilight 5:50 AM CST 6:38 PM CST
Astronomical Twilight 5:23 AM CST 7:06 PM CST
Moon 6:39 AM CST (2/10) 6:28 PM CST (2/10)
Length of Visible Light 11h 50m
Length of Day
11h 01m
New Moon, 0% of the Moon is Illuminated
Feb 10
New Moon
Feb 17
First Quarter
Feb 25
Full
Mar 4
Last Quarter
Mar 11
New

Hourly Weather History & Observations

Time (CST) Temp. Dew Point Humidity Pressure Visibility Wind Dir Wind Speed Gust Speed Precip Events Conditions
12:55 AM - - N/A% 30.06 in - North - - N/A   Unknown
3:55 AM - - N/A% 30.01 in - North - - N/A   Unknown
4:55 AM - - N/A% 29.99 in - North - - N/A   Unknown
5:55 AM 67.6 °F 60.4 °F 78% 30.00 in 8.0 mi SE 10.4 mph - N/A   Overcast
7:55 AM 68.5 °F 61.3 °F 78% 30.02 in 8.0 mi SE 8.1 mph - N/A   Overcast
8:55 AM 68.0 °F 64.4 °F 88% 30.01 in 8.0 mi SE 12.7 mph - N/A   Overcast
9:55 AM 71.1 °F 64.2 °F 79% 30.01 in 8.0 mi SSE 12.7 mph - N/A   Overcast
10:55 AM 71.4 °F 65.1 °F 80% 29.99 in 8.0 mi South 13.8 mph - N/A   Overcast
11:55 AM 73.4 °F 65.7 °F 77% 29.98 in 8.0 mi South 15.0 mph - N/A   Overcast
12:55 PM 72.0 °F 67.8 °F 87% 29.96 in 8.0 mi South 15.0 mph - N/A   Overcast
2:55 PM 74.3 °F 68.5 °F 82% 29.96 in 8.0 mi South 15.0 mph - N/A   Overcast
3:55 PM 74.5 °F 68.4 °F 81% 29.96 in 8.0 mi South 15.0 mph - N/A   Overcast
4:55 PM 73.9 °F 68.5 °F 83% 29.96 in 8.0 mi South 12.7 mph - N/A   Overcast
5:55 PM 72.7 °F 67.3 °F 83% 29.97 in 8.0 mi South 17.3 mph 23.0 mph N/A   Mostly Cloudy
6:55 PM 72.3 °F 66.7 °F 83% 29.99 in 8.0 mi South 12.7 mph - N/A   Mostly Cloudy
7:55 PM 72.1 °F 66.7 °F 83% 30.01 in 9.0 mi South 10.4 mph - N/A   Mostly Cloudy
8:55 PM 72.1 °F 67.1 °F 84% 30.01 in 7.0 mi South 10.4 mph - N/A   Mostly Cloudy
9:55 PM 71.6 °F 68.4 °F 89% 30.02 in 6.0 mi South 6.9 mph - N/A   Mostly Cloudy
10:55 PM 71.4 °F 68.5 °F 91% 30.03 in 6.0 mi South 8.1 mph - N/A   Scattered Clouds
11:55 PM - - N/A% 30.02 in - North - - N/A   Unknown